STARLINK-4658 (53612 NORAD) Tracking and Keplerian Element Data

This shows tracking and keplerian element data for the satellite.

Feedback or suggestion? Click here.




ElementValue
Catalog53612
NameSTARLINK-4658
Epoch Orbit130
Epoch Day324.91667824
Epoch Year2022
RAAN242.6188
Inclination53.2161
Eccentricity0.0001708
Argument of Perigee47.8336
Mean Anonmoly331.5888
Mean Motion15.0884492
Decay Rate-0.00017255
L11 53612U 22104AA 22324.91667824 -.00017255 00000+0 -10685-2 0 9995
L22 53612 53.2161 242.6188 0001708 47.8336 331.5888 15.08844920 1306



Live tracking and technical data element details for STARLINK-4658 (NORAD 53612). STARLINK-4658 can be tracked NOW for your location showing map with azimuth and elevation plus other details from your city location.







IsCatalogInMostPopularTable: catalog: 53612, numindb: 7
Update: records affected: 1



GetName: 53612 STARLINK-4658

Hit Count: updated at: Thu, 08 Dec 2022 19:56:03 GMT